Torna al catalogo

DELTA 1 DEB

AttivoSSO
NORAD 21351·DEBRIS·🇺🇸 United States

Lanciato Jun 12, 1975 da Vandenberg Space Force Base

Loading…

Prossimi Passaggi (prossime 24 ore)

TLE

AggiornatoSource: Space-Track

Epoca: Sep 14, 2026, 13:48 UTC

1 21351U 75052BV  26257.57510742 -.00000002  00000-0  82611-4 0  9999
2 21351  99.8586  18.1451 0066170 104.4771 319.9696 13.31656040716100

Traccia DELTA 1 DEB in tempo reale con AllMySat

Download on the App Store